www.pogodaiklimat.ru

Погода и климат >> Архив погоды >> Италия >> Капо Кацция


ПОГОДА на Капо Кацция

  • Прогноз погоды на Капо Кацция
  • Монитор погоды на Капо Кацция

АРХИВ ПОГОДЫ на Капо Кацция

Время (UTC), дата Ветер
(напр.,м/с)
 
Видим.   Явления Облачность Т
(С)
Тd
(С)
f
(%)
Тe
(С)
Тes
(С)
Комфортность P
(гПа)
Po
(гПа)
Тmin
(С)
Tmax
(С)
R
(мм)
R24
(мм)
S
(см)
07 13.04 З 2 20 км 5/5 450 м
[Cu med, cong]
+12.0 +10.4 90 +11 +13 1013.3 989.0
08 13.04 штиль 0 20 км 5/5 450 м
[Cu med, cong]
+13.0 +10.9 87 +13 +18 1013.2 989.0
09 13.04 штиль 0 20 км 4/4 450 м
[Cu med, cong]
+13.8 +12.0 89 +13 +23 1013.4 989.2
10 13.04 ЮЗ 2 20 км 4/4 450 м
[Cu med, cong]
+15.0 +12.9 87 +15 +23 1013.7 989.6
11 13.04 СВ 2 20 км 5/5 360 м
[Cu med, cong]
+15.0 +11.2 78 +15 +23 1013.8 989.7
12 13.04 С 3 20 км 4/4 360 м
[Cu med, cong]
+15.2 +11.2 77 +15 +24 1013.8 989.7
13 13.04 З 3 20 км 4/4 450 м
[Cu med, cong]
+15.2 +11.2 77 +15 +23 1013.6 989.5
14 13.04 З 3 20 км 4/4 450 м
[Cu med, cong]
+15.4 +12.0 80 +15 +20 1013.6 989.5
15 13.04 СЗ 4 20 км 3/3 450 м
[Cu med, cong]
+15.6 +12.2 80 +15 +18 1013.1 989.1
16 13.04 СЗ 5 20 км 3/3 450 м
[Cu med, cong]
+15.2 +12.3 83 +14 +15 1013.2 989.1
17 13.04 СЗ 6 20 км 5/5 360 м
[Cu med, cong]
+14.6 +13.5 93 +13 +13 1013.2 989.1
18 13.04 СЗ 4 20 км 3/3 450 м
[Cu med, cong]
+13.4 +12.3 93 +12 +12 1013.5 989.3 +15.8
19 13.04 З 5 20 км ясно +13.0 +11.6 91 +11 +11 1014.3 990.0
20 13.04 З 6 20 км ясно +12.4 +10.3 87 +10 +10 1014.4 990.1
21 13.04 З 6 20 км ясно +12.0 +9.4 84 +9 +9 1014.8 990.4
22 13.04 СЗ 6 20 км 4/4 300 м
[St]
+12.0 +9.2 83 +9 +9 1014.9 990.5
23 13.04 З 5 20 км ясно +12.0 +8.7 80 +10 +10 1015.4 991.0
00 14.04 З 3 20 км ясно +12.4 +8.5 77 +11 +11 1015.4 991.0
01 14.04 СВ 3 20 км 4/4 300 м
[St]
+12.2 +9.2 82 +11 +11 1014.7 990.3
02 14.04 СВ 4 20 км ясно +12.2 +9.8 85 +10 +10 1014.3 990.0
03 14.04 СВ 4 20 км 4/0 2000 м
[Ac trans]
+12.6 +11.3 92 +11 +11 1013.7 989.4
04 14.04 Ю 3 20 км 4/0
[Ac trans]
+13.0 +12.2 95 +12 +12 1013.2 989.0
05 14.04 СВ 3 20 км 4/0
[Ac trans]
+13.2 +12.6 96 +12 +12 1013.2 989.0
06 14.04 З 6 20 км 8/0 2000 м
[Ac trans]
+13.0 +11.9 93 +11 +11 1013.2 989.0 +12.0
07 14.04 З 6 20 км 4/0
[Ac trans]
+13.2 +10.2 82 +11 +12 1013.2 989.0
08 14.04 З 5 20 км 4/0
[Ac trans]
+14.0 +10.0 77 +12 +16 1013.1 989.0
09 14.04 В 3 20 км 4/0 2000 м
[Ac trans]
+15.0 +10.2 73 +14 +21 1013.1 989.0
10 14.04 СВ 3 20 км 4/0
[Ac trans]
+15.0 +11.6 80 +14 +25 опасность
простуды
1013.1 989.0
11 14.04 З 5 15 км 6/0
[Ac trans]
+15.0 +12.1 83 +14 +20 1013.1 989.0
12 14.04 З 6 20 км 8/3 450 м
[Cu med, cong Ac trans]
+14.8 +11.8 82 +13 +15 1012.8 988.7
13 14.04 З 6 20 км 9/3 450 м
[Cu med, cong Ac trans]
+14.0 +10.2 78 +12 +14 1012.8 988.7
14 14.04 ЮЗ 7 20 км 8/4 450 м
[Cu med, cong Ac trans]
+14.0 +10.0 77 +12 +13 1012.2 988.1
15 14.04 СЗ 8 20 км 6/4 450 м
[Cu med, cong Ac trans]
+13.6 +9.1 74 +11 +12 1012.2 988.0
16 14.04 З 9 20 км 6/3 450 м
[Cu med, cong Ac trans]
+13.0 +8.1 72 +10 +10 1012.3 988.1
17 14.04 З 9 20 км 5/3 450 м
[Cu med, cong Ac trans]
+12.8 +7.5 70 +10 +10 1011.4 987.2
18 14.04 СЗ 8 20 км 4/0 2000 м
[Ac trans]
+12.2 +7.9 75 +9 +9 1011.5 987.2 +15.2
19 14.04 СЗ 8 20 км 4/0
[Ac trans]
+12.0 +7.5 74 +9 +9 1012.3 988.0
20 14.04 СЗ 7 20 км 3/0
[Ac trans]
+12.0 +8.7 80 +9 +9 1012.8 988.5
21 14.04 СЗ 7 20 км ясно +12.0 +10.4 90 +9 +9 1013.3 989.0
22 14.04 СЗ 6 20 км ясно +11.8 +10.2 90 +9 +9 1013.8 989.5
23 14.04 СЗ 6 20 км ясно +11.6 +10.0 90 +9 +9 1014.2 989.8
00 15.04 СЗ 7 20 км ясно +11.6 +9.7 88 +8 +8 1014.3 989.9
01 15.04 СЗ 6 20 км ясно +11.8 +10.1 89 +9 +9 1014.4 990.0
02 15.04 СЗ 8 20 км ясно +12.0 +9.9 87 +9 +9 1014.3 990.0
03 15.04 С 8 20 км ясно +12.0 +9.6 85 +9 +9 1014.3 990.0
04 15.04 С 8 20 км ясно +12.0 +9.7 86 +9 +9 1014.3 990.0
05 15.04 С 3 20 км 3/3 450 м
[Cu med, cong]
+11.4 +10.5 94 +9 +9 1014.6 990.2
06 15.04 С 4 20 км 1/1 450 м
[Cu med, cong]
+11.8 +10.2 90 +10 +11 1015.4 991.0 +11.4
07 15.04 СВ 4 20 км ясно +13.2 +11.6 90 +11 +14 1016.3 992.0
08 15.04 СВ 4 30 км ясно +14.2 +9.4 73 +13 +18 1016.3 992.0
09 15.04 СВ 3 20 км 1/1 450 м
[Cu hum]
+15.4 +10.0 70 +15 +24 1017.0 992.9
10 15.04 СВ 4 20 км 3/3 450 м
[Cu hum]
+17.0 +9.9 63 +17 +24 1017.0 993.0
11 15.04 ЮВ 1 20 км 4/4 600 м
[Cu hum]
+16.0 +10.1 68 +17 +28 1017.1 993.0
12 15.04 СЗ 2 20 км 4/4 600 м
[Cu hum]
+16.8 +11.9 73 +17 +28 1017.0 993.0
13 15.04 30 км н/о +17.0 +11.1 68 +17 +27 1017.0 993.0
14 15.04 С 5 20 км 3/3 450 м
[Cu hum]
+17.8 +11.6 67 +17 +22 1016.8 992.9
15 15.04 СВ 7 20 км 3/1 450 м
[Cu hum Ci fib]
+18.4 +11.5 64 +18 +20 1016.8 992.9
16 15.04 СВ 8 20 км 3/1 450 м
[Cu hum Ci fib]
+16.6 +10.7 68 +15 +16 1016.8 992.8
17 15.04 СВ 8 20 км 8/1 600 м
[Cu hum Ci]
+14.8 +10.8 77 +13 +13 1017.1 992.9
18 15.04 СВ 9 20 км 9/0
[Ci]
+14.0 +11.2 83 +11 +11 1017.2 993.0 +18.4
19 15.04 СВ 9 20 км 8/0
[Ci]
+13.2 +11.6 90 +10 +10 1017.7 993.4
20 15.04 СВ 7 20 км 8/0
[Ci]
+13.4 +10.9 85 +11 +11 1018.3 994.0
21 15.04 СВ 4 20 км 4/0
[Ac trans]
+13.2 +11.1 87 +11 +11 1018.3 994.0
22 15.04 В 4 20 км 3/0
[Ac trans]
+13.2 +11.3 88 +11 +11 1018.5 994.2
23 15.04 ЮВ 7 20 км 3/0
[Ac trans]
+13.0 +12.2 95 +10 +10 1018.3 994.0
00 16.04 ЮВ 5 20 км 3/0
[Ac trans]
+13.2 +9.8 80 +11 +11 1018.4 994.1
01 16.04 ЮВ 5 20 км 8/8 150 м
[St]
+13.6 +9.3 75 +12 +12 1017.7 993.4
02 16.04 Ю 2 12 км 9/9 150 м
[St]
+13.8 +12.2 90 +13 +13 1018.1 993.8
03 16.04 Ю 4 10 км 9/3 180 м
[St As op]
+13.6 +12.8 95 +12 +12 1017.4 993.1
04 16.04 Ю 2 10 км 10/3 180 м
[St As op]
+13.4 +12.3 93 +13 +13 1017.3 993.0
05 16.04 ЮЗ 1 15 км 10/0
[Ac As]
+13.0 +11.7 92 +14 +14 1018.1 993.8
06 16.04 З 3 20 км 10/0 2000 м
[Ac As]
+13.0 +11.7 92 +12 +12 1018.7 994.4 +12.6
07 16.04 СЗ 1 15 км 9/0
[Ac As]
+13.4 +12.3 93 +13 +15 1019.3 995.0
08 16.04 СВ 4 20 км 9/0
[Ac As]
+13.8 +12.2 90 +12 +14 1019.3 995.0
09 16.04 СВ 3 20 км 9/0 2000 м
[Ac As]
+14.4 +11.4 82 +14 +18 1019.2 995.0
10 16.04 СЗ 2 20 км 9/0
[Ac As]
+14.8 +12.0 83 +15 +21 1019.4 995.2
11 16.04 СВ 3 20 км 6/0
[Ac trans Ci fib]
+16.4 +12.2 76 +16 +27 1019.5 995.4
12 16.04 СВ 2 20 км 4/1 450 м
[Cu hum Ac cuf Ci fib]
+18.0 +11.3 65 +19 +32 опасность
простуды
1018.9 995.0
13 16.04 СЗ 4 20 км 3/1 450 м
[Cu hum Ac trans]
+17.4 +12.3 72 +17 +25 1019.0 995.0
14 16.04 СЗ 5 20 км 6/3 450 м
[Cu hum Ac und]
+17.4 +12.5 73 +17 +20 1019.0 995.0
15 16.04 СЗ 5 20 км 6/0 2000 м
[Ac und]
+16.4 +9.6 64 +15 +18 1019.1 995.0
16 16.04 СЗ 3 20 км 4/0
[Ac trans]
+16.4 +9.8 65 +16 +18 1019.1 995.0
17 16.04 СЗ 3 20 км 5/0
[Ac trans]
+16.2 +10.1 67 +16 +16 1019.1 995.0
18 16.04 С 4 20 км 5/0 2000 м
[Ac trans]
+15.8 +9.2 65 +15 +15 1019.2 995.1 +18.4
19 16.04 С 4 20 км ясно +14.4 +11.4 82 +13 +13 1020.4 996.1
20 16.04 С 3 20 км ясно +14.0 +10.6 80 +13 +13 1020.4 996.1
21 16.04 СВ 2 20 км ясно +14.0 +10.2 78 +14 +14 1020.3 996.0
22 16.04 С 2 20 км ясно +14.0 +9.7 75 +14 +14 1020.4 996.1
23 16.04 С 2 20 км ясно +13.8 +9.8 77 +13 +13 1020.4 996.1
00 17.04 С 3 20 км ясно +13.2 +10.2 82 +12 +12 1020.5 996.1
01 17.04 СВ 3 20 км ясно +12.8 +11.0 89 +12 +12 1020.4 996.0
02 17.04 СВ 3 20 км ясно +12.4 +12.1 98 +11 +11 1020.3 995.9
03 17.04 СВ 2 20 км ясно +12.2 +11.9 98 +11 +11 1019.6 995.2
04 17.04 В 2 20 км ясно +11.6 +10.0 90 +10 +10 1019.5 995.0
05 17.04 СЗ 2 20 км ясно +11.4 +9.0 85 +10 +10 1019.8 995.3
06 17.04 СВ 2 20 км ясно +12.6 +11.8 95 +12 +13 1020.0 995.6 +11.4
07 17.04 СВ 3 20 км ясно +13.2 +11.6 90 +12 +16 1020.4 996.0
08 17.04 СВ 3 20 км ясно +15.0 +10.6 75 +14 +21 1020.3 996.1
09 17.04 В 2 20 км ясно +16.0 +10.5 70 +16 +28 опасность
простуды
1020.7 996.5
10 17.04 штиль 0 20 км ясно +16.0 +12.6 80 +16 +36 опасность
простуды
1020.7 996.5
11 17.04 штиль 0 20 км ясно +16.4 +13.3 82 +16 +39 опасность
простуды
1020.7 996.5
12 17.04 ЮЗ 3 20 км ясно +16.4 +13.9 85 +16 +31 опасность
простуды
1020.6 996.4
13 17.04 СЗ 4 20 км ясно +16.4 +13.9 85 +16 +27 1020.5 996.3
14 17.04 СЗ 3 20 км ясно +16.2 +14.4 89 +16 +26 1019.8 995.7
15 17.04 СЗ 3 20 км ясно +16.2 +13.5 84 +16 +22 1019.5 995.4
16 17.04 СЗ 3 20 км ясно +16.2 +13.7 85 +16 +19 1020.2 996.1
17 17.04 СЗ 3 20 км ясно +16.4 +13.9 85 +16 +17 1020.2 996.1
18 17.04 СВ 5 20 км ясно +16.0 +11.4 74 +15 +15 1019.0 994.9 +17.2
19 17.04 СВ 6 20 км ясно +15.2 +9.4 68 +14 +14 1019.1 994.9
20 17.04 СВ 5 20 км 4/4 600 м
[Cu hum]
+15.0 +12.5 85 +14 +14 1019.2 995.0
21 17.04 СВ 4 20 км 4/1 600 м
[Cu hum Ac trans]
+14.8 +13.5 92 +14 +14 1019.8 995.6
22 17.04 В 4 20 км 4/3 600 м
[Cu hum Ac trans]
+14.0 +12.7 92 +13 +13 1020.1 995.8
23 17.04 В 4 20 км 5/3 600 м
[Cu hum Ac trans]
+14.2 +13.4 95 +13 +13 1020.5 996.1
00 18.04 ЮВ 3 20 км 5/0 2000 м
[Ac trans]
+13.8 +13.0 95 +13 +13 1020.4 996.1
01 18.04 В 2 20 км 5/0
[Ac trans]
+13.2 +11.6 90 +12 +12 1020.2 995.8
02 18.04 штиль 0 20 км 5/0
[Ac trans]
+13.2 +11.6 90 +13 +13 1019.4 995.1
03 18.04 СВ 2 20 км 5/0 2000 м
[Ac trans]
+13.6 +11.1 85 +13 +13 1019.4 995.1
04 18.04 СВ 2 20 км 5/0
[Ac trans]
+12.2 +11.3 94 +11 +11 1018.7 994.3
05 18.04 СВ 2 20 км 4/0
[Ac trans]
+12.2 +10.8 91 +11 +11 1018.6 994.2
06 18.04 СВ 3 20 км 8/0 2000 м
[Ac trans Cs]
+13.4 +10.9 85 +12 +13 1018.4 994.1 +12.2
07 18.04 СВ 3 20 км 6/0
[Cs]
+13.8 +9.4 75 +13 +16 1019.1 994.8
08 18.04 СВ 2 20 км 5/0
[Ci fib]
+16.0 +10.7 71 +16 +23 1019.1 995.0
09 18.04 СВ 3 20 км 5/0
[Ci fib]
+17.2 +11.3 68 +17 +26 1019.1 995.1
10 18.04 СВ 3 20 км 5/0
[Ci fib]
+19.8 +12.1 61 +22 +33 комфорт 1018.9 995.1
11 18.04 З 2 20 км 5/0
[Ci fib]
+20.2 +12.2 60 +23 +39 комфорт 1018.5 994.8
12 18.04 З 3 20 км 5/0
[Ci fib]
+19.2 +12.5 65 +21 +34 комфорт 1017.9 994.1
13 18.04 З 1 20 км 5/0
[Ci fib]
+21.0 +11.9 56 +24 +40 комфорт 1017.8 994.1
14 18.04 ЮВ 2 20 км 5/0
[Ci fib]
+21.0 +12.2 57 +24 +34 комфорт 1017.7 994.0
15 18.04 ЮЗ 2 20 км 5/0
[Ci fib]
+20.4 +11.3 56 +23 +30 комфорт 1017.6 993.9
16 18.04 ЮЗ 1 20 км 4/0
[Ci fib]
+20.6 +11.3 55 +24 +28 комфорт 1017.4 993.7
17 18.04 ЮЗ 2 20 км 4/0
[Ci fib]
+20.6 +11.3 55 +23 +24 комфорт 1017.4 993.7
18 18.04 ЮЗ 1 20 км 4/0
[Ci fib]
+19.0 +10.3 57 +21 +21 комфорт 1017.6 993.8 +21.4
19 18.04 СВ 3 20 км 3/0
[Ci fib]
+16.8 +11.7 72 +17 +17 1018.3 994.3
20 18.04 СВ 4 20 км 3/0
[Ci fib]
+15.2 +8.0 62 +14 +14 1019.1 994.9
21 18.04 СВ 5 20 км ясно +15.0 +9.4 69 +14 +14 1019.3 995.1
22 18.04 СВ 6 20 км ясно +15.0 +9.6 70 +13 +13 1019.5 995.3
23 18.04 СВ 6 20 км ясно +14.8 +9.8 72 +13 +13 1019.7 995.5
00 19.04 СВ 7 20 км ясно +14.4 +8.6 68 +12 +12 1019.7 995.5
01 19.04 СВ 7 20 км ясно +14.4 +7.7 64 +12 +12 1019.7 995.5
02 19.04 СВ 7 20 км ясно +14.6 +8.1 65 +13 +13 1019.7 995.5
03 19.04 СВ 8 20 км ясно +14.6 +8.1 65 +12 +12 1020.1 995.9
04 19.04 СВ 9 20 км ясно +14.2 +9.6 74 +12 +12 1020.3 996.0
05 19.04 СВ 9 20 км ясно +14.0 +10.0 77 +11 +11 1020.3 996.0
06 19.04 СВ 8 20 км 5/0
[Ci fib]
+14.0 +9.7 75 +12 +12 1021.3 996.9 +13.8
07 19.04 СВ 7 20 км 6/0
[Ci fib]
+14.8 +10.4 75 +13 +14 1021.2 996.9
08 19.04 СВ 8 20 км 5/0
[Ci fib]
+18.0 +11.8 67 +17 +18 1021.1 997.1
09 19.04 СВ 7 20 км 5/0
[Ci fib]
+18.6 +11.7 64 +18 +21 1021.8 997.8
10 19.04 СВ 6 20 км 4/0
[Ci fib]
+21.0 +12.2 57 +23 +29 комфорт 1021.8 998.0
11 19.04 СВ 3 20 км 4/0
[Ci fib]
+22.8 +13.3 55 +26 +40 жарко 1021.7 998.1
12 19.04 Ю 2 20 км 4/0
[Ci fib]
+23.0 +11.4 48 +25 +42 комфорт 1021.7 998.1
13 19.04 Ю 3 20 км 5/1 600 м
[Cu med, cong Ci fib]
+23.0 +12.0 50 +26 +36 жарко 1021.7 998.1
14 19.04 ЮЗ 3 20 км 5/3 600 м
[Cu med, cong Ci fib]
+21.4 +12.0 55 +24 +30 комфорт 1021.7 998.0
15 19.04 З 4 20 км 5/3 600 м
[Cu med, cong Ci fib]
+21.2 +12.4 57 +23 +27 комфорт 1021.8 998.0
16 19.04 СЗ 4 20 км 5/3 600 м
[Cu med, cong Ci fib]
+21.0 +13.0 60 +24 +26 комфорт 1021.7 997.9
17 19.04 СЗ 2 20 км 4/0
[Ci fib]
+20.2 +12.9 63 +23 +24 комфорт 1021.7 997.9
18 19.04 штиль 0 20 км 5/0
[Ci fib]
+20.0 +13.5 66 +22 +22 комфорт 1021.8 997.9 +23.6
19 19.04 СВ 6 20 км ясно +18.6 +12.6 68 +19 +19 1022.1 998.1
20 19.04 СВ 6 20 км ясно +18.2 +12.0 67 +18 +18 1022.8 998.7
21 19.04 СВ 7 20 км ясно +17.6 +11.4 67 +17 +17 1022.8 998.7
22 19.04 СВ 7 20 км ясно +17.0 +11.5 70 +16 +16 1022.9 998.7
23 19.04 СВ 7 20 км ясно +16.6 +11.5 72 +15 +15 1022.5 998.3
00 20.04 СВ 6 20 км ясно +16.0 +10.5 70 +15 +15 1022.3 998.1
01 20.04 СВ 7 20 км ясно +15.6 +10.4 71 +14 +14 1022.0 997.8
02 20.04 СВ 8 20 км ясно +15.4 +9.7 69 +14 +14 1021.8 997.6
03 20.04 СВ 8 20 км ясно +15.2 +9.8 70 +13 +13 1021.8 997.6
04 20.04 СВ 7 20 км 5/0
[Ci fib]
+14.6 +10.0 74 +13 +13 1021.3 997.0
05 20.04 СВ 7 20 км 8/0
[Ci fib]
+14.8 +10.8 77 +13 +13 1021.1 996.8

 

Местоположение метеостанции Капо Кацция (Италия): широта 40.57 долгота 8.17 высота над уровнем моря 204 м.

В архиве по умолчанию представлена погода на Капо Кацция за последнюю неделю. Архивные данные за месяц целиком и за предыдущие месяцы, начиная с января 2011 года, Вы можете получить, выбрав интересующий диапазон дат из раскрывающегося списка и нажав кнопку "Ввод!".


*Определитесь, кто Вы:
робот инопланетянин человек

Внимание! Время в таблицах - всемирное. Для получения местного времени необходимо прибавить поправку, которая равна 1 ч.

Смотрите также архив погоды в соседних городах и на ближайших метеорологических станциях:

Погода в Альгеро (Италия) (11 км)
Погода на Капо Фраска (Италия) (95 км)
Погода в Ольвии (Италия) (120 км)
Погода на Мысе Пертюзато (Франция) (122 км)
Погода в Фигари (Франция) (130 км)
Погода на Капо Беллависто (Италия) (150 км)
Погода в Дечимоманну (Италия) (152 км)
Погода в Ла Парате (Франция) (155 км)
Погода в Аяччо (Франция) (159 км)
Погода в Соленцаре (Франция) (182 км)

Пояснения к столбцам:

Ветер - указаны скорость ветра в м/с - средняя за 10 мин, порывы в срок и между сроками (в фигурных скобках) и направление, откуда дует ветер: С - северный, СВ - северо-восточный, В - восточный, ЮВ - юго-восточный, Ю - южный, ЮЗ - юго-западный, З - западный, СЗ - северо-западный.
Видимость - горизонтальная дальность видимости в метрах или километрах. При видимости от 1 до 10 км при отсутствии осадков обычно наблюдается дымка, при ухудшении видимости до 1 км и менее - туман. В сухую погоду видимость может ухудшаться дымом, пылью или мглою.
Явления - указаны атмосферные явления, наблюдавшиеся в срок или в последний час перед сроком; фигурными скобками обозначены явления, наблюдавшиеся между сроками (за 1-3 часа до срока); квадратными скобками обозначены град или гололедные отложения с указанием их диаметра в мм.
Облачность - указаны через наклонную черту общая и нижняя облачность в баллах и высота нижней границы облаков в метрах; квадратными скобками обозначены формы облаков: Ci - перистые, Cs - перисто-слоистые, Cc - перисто-кучевые, Ac - высококучевые, As - высокослоистые, Sc - слоисто-кучевые, Ns - слоисто-дождевые, Cu - кучевые, Cb - кучево-дождевые. Подробнее классификацию облаков см. в Атласе облаков (PDF).
T - Температура воздуха - температура, измеренная на высоте 2 м над землей.
Td - Температура точки росы - температура, при понижении до которой содержащийся в воздухе водяной пар достигнет насыщения.
f - Относительная влажность воздуха - влажноcть воздуха, измеренная на высоте 2 м над землей.
Te - Эффективная температура - температура, которую ощущает одетый по сезону человек в тени. Характеристика душности погоды. При расчете учитывается влияние влажности воздуха и скорости ветра на теплоощущения человека.
Tes - Эффективная температура на солнце - температура, которую ощущает человек, с поправкой на солнечный нагрев. Характеристика знойности погоды. Зависит от высоты солнца над горизонтом, облачности и скорости ветра. Ночью, в пасмурную погоду, а также при ветре 12 м/с и более поправка равна нулю.
P - Атмосферное давление - приведенное к уровню моря атмосферное давление.
Po - Атмосферное давление - измеренное на уровне метеостанции атмосферное давление.
Tmin - Минимальная температура - минимум температуры воздуха на высоте 2 м над землей.
Tmax - Максимальная температура - максимум температуры воздуха на высоте 2 м над землей.
R - Количество осадков - Количество выпавших осадков за период времени, мм. При наведении курсора мыши на число - период времени, за который выпало указанное количество осадков.
R24 - Количество осадков - Количество выпавших осадков за 24 часа, мм.
S - Снежный покров - Высота снежного покрова, см. При наведении курсора мыши на число - состояние снежного покрова и степень покрытия местности в баллах.